Location: Unspecified
(0.0000°N, 0.0000°E)
Time: 03:57:25
(UTC+00:00)

N. Korean satellite - Pass Details

Date: 22 June 2019
Orbit: 455 x 510 km, 97.2° (Epoch: 26 June)

Event Time Altitude Azimuth Distance (km) Brightness Sun altitude
Rises 05:30:18 0° 16° (NNE) 2,501 10.8 -7.2°
Reaches altitude 10° 05:32:21 10° 20° (NNE) 1,636 9.9 -6.8°
Maximum altitude 05:35:49 62° 101° (E) 547 7.1 -6.0°
Drops below altitude 10° 05:39:23 10° 182° (S) 1,676 9.0 -5.2°
Sets 05:41:30 0° 185° (S) 2,570 9.9 -4.7°
